EW8926 Weather Reports


Display with metric or nautical units.
time (UTC)temp
F
wind
direction
speed
MPH
gust
MPH
rain 1hr
in
rain 24hr
in
rain mn
in
humidity
%
barometer
mb
20260504234604 59 315 1.0 2.0 0.00 0.00 0.00 72 1016.2
20260504234103 59 315 1.0 3.0 0.00 0.00 0.00 72 1016.3
20260504233604 59 313 1.0 2.0 0.00 0.00 0.00 72 1016.4
20260504233104 59 350 1.0 3.0 0.00 0.00 0.00 72 1016.4
20260504232604 59 1 1.0 2.0 0.00 0.00 0.00 72 1016.6
20260504232104 60 288 1.0 2.0 0.00 0.00 0.00 71 1016.7
20260504231604 60 288 1.0 2.0 0.00 0.00 0.00 71 1016.7
20260504231104 60 271 2.0 2.0 0.00 0.00 0.00 70 1016.8
20260504230604 61 262 2.0 2.0 0.00 0.00 0.00 70 1016.9
20260504230106 61 264 1.0 3.0 0.00 0.00 0.00 69 1016.9
20260504225604 61 258 1.0 3.0 0.00 0.00 0.00 69 1017.0
20260504225104 61 54 2.0 2.0 0.00 0.00 0.00 68 1017.0
20260504224607 61 287 2.0 3.0 0.00 0.00 0.00 68 1017.0
20260504223604 61 158 1.0 5.0 0.00 0.00 0.00 68 1017.2
20260504223105 61 236 1.0 2.0 0.00 0.00 0.00 68 1017.2
20260504222604 61 208 0.0 2.0 0.00 0.00 0.00 68 1017.3
20260504222105 62 152 2.0 1.0 0.00 0.00 0.00 68 1017.3
20260504221604 62 152 2.0 2.0 0.00 0.00 0.00 68 1017.3
20260504221104 62 152 2.0 2.0 0.00 0.00 0.00 67 1017.4
20260504220606 62 152 2.0 3.0 0.00 0.00 0.00 67 1017.5
20260504220105 62 117 2.0 5.0 0.00 0.00 0.00 66 1017.5
20260504215605 62 163 2.0 5.0 0.00 0.00 0.00 66 1017.6
20260504215104 62 154 2.0 5.0 0.00 0.00 0.00 67 1017.6
20260504213605 62 136 2.0 5.0 0.00 0.00 0.00 67 1017.7
20260504213107 62 180 2.0 5.0 0.00 0.00 0.00 67 1017.7
20260504212604 62 158 2.0 3.0 0.00 0.00 0.00 68 1017.7
20260504212105 62 134 2.0 5.0 0.00 0.00 0.00 68 1017.7
20260504211607 62 155 2.0 5.0 0.00 0.00 0.00 68 1017.7
20260504210605 62 149 2.0 6.0 0.00 0.00 0.00 68 1017.8
20260504205606 62 143 2.0 5.0 0.00 0.00 0.00 68 1017.9
20260504205104 62 160 2.0 5.0 0.00 0.00 0.00 68 1017.9
20260504204604 62 170 2.0 5.0 0.00 0.00 0.00 68 1017.9
20260504204104 62 134 1.0 7.0 0.00 0.00 0.00 68 1018.0
20260504203604 62 167 1.0 6.0 0.00 0.00 0.00 67 1018.1
20260504203104 62 118 2.0 3.0 0.00 0.00 0.00 66 1018.1
20260504202604 62 143 2.0 3.0 0.00 0.00 0.00 66 1018.0
20260504201104 62 157 2.0 5.0 0.00 0.00 0.00 65 1018.0
20260504200104 62 145 2.0 5.0 0.00 0.00 0.00 65 1018.0
20260504195608 62 167 2.0 3.0 0.00 0.00 0.00 65 1018.1
20260504194105 62 135 2.0 3.0 0.00 0.00 0.00 65 1018.0
20260504193104 62 142 2.0 6.0 0.00 0.00 0.00 65 1017.9
20260504192604 62 164 2.0 7.0 0.00 0.00 0.00 64 1017.8
20260504192120 62 151 2.0 7.0 0.00 0.00 0.00 63 1017.7
20260504190604 62 155 2.0 5.0 0.00 0.00 0.00 62 1017.6
20260504190104 63 126 3.0 5.0 0.00 0.00 0.00 62 1017.6
20260504185604 63 165 3.0 6.0 0.00 0.00 0.00 62 1017.5
20260504185105 63 150 3.0 6.0 0.00 0.00 0.00 62 1017.5
20260504184606 63 159 2.0 5.0 0.00 0.00 0.00 61 1017.5
20260504184106 63 157 2.0 5.0 0.00 0.00 0.00 60 1017.4
20260504183604 64 146 2.0 7.0 0.00 0.00 0.00 59 1017.4
20260504183104 64 153 2.0 7.0 0.00 0.00 0.00 59 1017.4
20260504182604 64 129 2.0 5.0 0.00 0.00 0.00 58 1017.3
20260504182104 64 176 2.0 6.0 0.00 0.00 0.00 58 1017.3
20260504181606 64 142 2.0 6.0 0.00 0.00 0.00 57 1017.3
20260504180604 65 141 2.0 5.0 0.00 0.00 0.00 55 1017.3
20260504180104 65 108 2.0 5.0 0.00 0.00 0.00 54 1017.3
20260504175604 65 102 2.0 3.0 0.00 0.00 0.00 54 1017.2
20260504174604 65 173 2.0 6.0 0.00 0.00 0.00 52 1017.2
20260504174111 66 228 2.0 5.0 0.00 0.00 0.00 52 1017.1
20260504173604 66 139 2.0 5.0 0.00 0.00 0.00 51 1017.1
20260504173104 66 154 2.0 5.0 0.00 0.00 0.00 51 1017.1
20260504172604 66 151 2.0 6.0 0.00 0.00 0.00 49 1017.1
20260504172104 66 157 2.0 6.0 0.00 0.00 0.00 49 1017.1
20260504171104 67 139 2.0 6.0 0.00 0.00 0.00 48 1017.1
20260504170104 67 139 3.0 5.0 0.00 0.00 0.00 49 1017.1
20260504160104 68 160 3.0 6.0 0.00 0.00 0.00 51 1017.3
20260504150605 72 148 3.0 8.0 0.00 0.00 0.00 45 1017.4
20260504150105 71 129 3.0 7.0 0.00 0.00 0.00 46 1017.4
20260504141105 73 139 4.0 6.0 0.00 0.00 0.00 43 1017.9
20260504140611 73 147 5.0 8.0 0.00 0.00 0.00 42 1017.9
20260504130104 73 140 5.0 6.0 0.00 0.00 0.00 37 1018.5
20260504110603 70 137 3.0 8.0 0.00 0.00 0.00 50 1019.1
20260504110105 69 169 3.0 9.0 0.00 0.00 0.00 52 1019.1
20260504100104 68 113 2.0 6.0 0.00 0.00 0.00 50 1019.5
20260504090104 67 149 2.0 5.0 0.00 0.00 0.00 51 1019.4
20260504081609 66 73 2.0 5.0 0.00 0.00 0.00 48 1019.3
20260504081103 66 240 2.0 5.0 0.00 0.00 0.00 48 1019.2
20260504080604 66 161 2.0 7.0 0.00 0.00 0.00 48 1019.1
20260504080104 66 151 2.0 5.0 0.00 0.00 0.00 48 1019.1
20260504070107 63 329 1.0 3.0 0.00 0.00 0.00 49 1018.4
20260504060104 61 148 2.0 2.0 0.00 0.00 0.00 50 1018.3
20260504050604 58 115 0.0 3.0 0.00 0.00 0.00 53 1018.1
20260504050107 58 163 0.0 5.0 0.00 0.00 0.00 54 1018.1
20260504045604 57 171 0.0 2.0 0.00 0.00 0.00 53 1018.0
20260504045105 57 165 1.0 2.0 0.00 0.00 0.00 55 1017.9
20260504044604 57 165 1.0 2.0 0.00 0.00 0.00 53 1017.9
20260504044105 57 165 1.0 1.0 0.00 0.00 0.00 55 1017.8
20260504043607 56 165 1.0 5.0 0.00 0.00 0.00 54 1017.8
20260504043103 56 148 1.0 2.0 0.00 0.00 0.00 56 1017.8
20260504042604 55 160 1.0 2.0 0.00 0.00 0.00 57 1017.7
20260504042104 55 160 1.0 5.0 0.00 0.00 0.00 58 1017.7
20260504041605 54 142 0.0 5.0 0.00 0.00 0.00 59 1017.7
20260504041105 53 142 0.0 2.0 0.00 0.00 0.00 60 1017.8
20260504040603 53 144 0.0 1.0 0.00 0.00 0.00 61 1017.8
20260504040104 53 144 0.0 0.0 0.00 0.00 0.00 63 1017.8
20260504035604 53 144 0.0 0.0 0.00 0.00 0.00 62 1017.8
20260504035104 53 144 0.0 0.0 0.00 0.00 0.00 61 1017.8
20260504034604 54 144 0.0 0.0 0.00 0.00 0.00 61 1017.8
20260504034104 54 144 0.0 0.0 0.00 0.00 0.00 61 1017.9
20260504033604 54 144 0.0 1.0 0.00 0.00 0.00 61 1018.0
20260504033104 54 144 0.0 2.0 0.00 0.00 0.00 63 1018.0
20260504032103 55 241 0.0 0.0 0.00 0.00 0.00 61 1017.9
20260504031603 55 241 0.0 0.0 0.00 0.00 0.00 60 1017.9
20260504031104 56 241 0.0 2.0 0.00 0.00 0.00 59 1018.0
20260504030605 56 241 0.0 1.0 0.00 0.00 0.00 58 1018.0
20260504030104 56 241 0.0 2.0 0.00 0.00 0.00 57 1018.0
20260504025104 56 242 2.0 2.0 0.00 0.00 0.00 58 1018.0
20260504024604 56 242 2.0 0.0 0.00 0.00 0.00 58 1018.0
20260504024104 56 242 2.0 2.0 0.00 0.00 0.00 58 1018.0
20260504023604 55 114 2.0 5.0 0.00 0.00 0.00 59 1018.0
20260504023103 54 119 1.0 6.0 0.00 0.00 0.00 60 1018.0
20260504022604 53 127 0.0 3.0 0.00 0.00 0.00 64 1018.0
20260504022104 53 314 0.0 2.0 0.00 0.00 0.00 65 1018.0
20260504021603 53 314 0.0 0.0 0.00 0.00 0.00 66 1018.0
20260504021104 53 314 0.0 0.0 0.00 0.00 0.00 66 1018.0
20260504020604 53 314 0.0 2.0 0.00 0.00 0.00 66 1018.0
20260504020104 53 314 0.0 3.0 0.00 0.00 0.00 66 1018.0
20260504015604 53 314 0.0 0.0 0.00 0.00 0.00 65 1018.1
20260504015104 53 314 0.0 0.0 0.00 0.00 0.00 65 1018.1
20260504014604 53 314 0.0 0.0 0.00 0.00 0.00 66 1018.1
20260504014104 53 314 0.0 2.0 0.00 0.00 0.00 66 1018.2
20260504013604 53 314 0.0 2.0 0.00 0.00 0.00 65 1018.2
20260504013107 53 314 1.0 2.0 0.00 0.00 0.00 66 1018.2
20260504012604 53 314 1.0 2.0 0.00 0.00 0.00 66 1018.2
20260504012104 54 314 1.0 1.0 0.00 0.00 0.00 66 1018.2
20260504011604 54 314 0.0 3.0 0.00 0.00 0.00 66 1018.2
20260504011104 54 314 0.0 5.0 0.00 0.00 0.00 66 1018.2
20260504010604 55 314 0.0 0.0 0.00 0.00 0.00 64 1018.2
20260504010105 55 314 0.0 2.0 0.00 0.00 0.00 64 1018.2
20260504005605 55 314 0.0 0.0 0.00 0.00 0.00 63 1018.3
20260504004604 56 314 0.0 3.0 0.00 0.00 0.00 63 1018.3
20260504004104 56 314 0.0 2.0 0.00 0.00 0.00 62 1018.3
20260504003603 56 314 0.0 1.0 0.00 0.00 0.00 59 1018.3
20260504003105 57 314 0.0 2.0 0.00 0.00 0.00 59 1018.3
20260504002604 57 314 0.0 0.0 0.00 0.00 0.00 57 1018.4
20260504002103 57 314 0.0 0.0 0.00 0.00 0.00 57 1018.4
20260504001603 58 314 0.0 2.0 0.00 0.00 0.00 57 1018.4
20260504001104 58 314 2.0 2.0 0.00 0.00 0.00 55 1018.5
20260504000604 58 314 2.0 2.0 0.00 0.00 0.00 54 1018.5
20260503235603 59 314 1.0 3.0 0.00 0.00 0.00 53 1018.4
20260503235103 59 95 1.0 2.0 0.00 0.00 0.00 54 1018.4